Time,TemperatureF,DewpointF,PressureIn,WindDirection,WindDirectionDegrees,WindSpeedMPH,WindSpeedGustMPH,Humidity,HourlyPrecipIn,Conditions,Clouds,dailyrainin,SoftwareType,DateUTC
2013-09-13 00:02:00,54.0,53.0,-100.00,SSE,168,2.0,3.0,98,0.00,,,-99.99,,2013-09-13 07:02:00,
2013-09-13 00:42:00,52.0,51.0,-100.00,SSE,162,2.0,3.0,98,0.00,,,-99.99,,2013-09-13 07:42:00,
2013-09-13 00:52:00,53.0,52.0,-100.00,SE,141,0.0,1.0,98,0.00,,,-99.99,,2013-09-13 07:52:00,
2013-09-13 01:02:00,53.0,52.0,-100.00,SE,141,0.0,1.0,98,0.00,,,-99.99,,2013-09-13 08:02:00,
2013-09-13 01:22:00,53.0,52.0,-100.00,SSE,155,0.0,1.0,97,0.00,,,-99.99,,2013-09-13 08:22:00,
2013-09-13 01:32:00,53.0,52.0,-100.00,SSE,155,0.0,1.0,97,0.00,,,-99.99,,2013-09-13 08:32:00,
2013-09-13 01:52:00,52.0,51.0,-100.00,South,171,0.0,2.0,98,0.00,,,-99.99,,2013-09-13 08:52:00,
2013-09-13 02:11:00,53.0,52.0,-100.00,SSE,155,0.0,1.0,97,0.00,,,-99.99,,2013-09-13 09:11:00,
2013-09-13 02:21:00,53.0,52.0,-100.00,SSE,155,0.0,1.0,97,0.00,,,-99.99,,2013-09-13 09:21:00,
2013-09-13 02:43:00,52.0,51.0,-100.00,SSE,165,1.0,2.0,97,0.00,,,-99.99,,2013-09-13 09:43:00,
2013-09-13 02:54:00,52.0,51.0,-100.00,SSE,165,1.0,2.0,97,0.00,,,-99.99,,2013-09-13 09:54:00,
2013-09-13 03:03:00,52.0,51.0,-100.00,SSE,165,1.0,2.0,97,0.00,,,-99.99,,2013-09-13 10:03:00,
2013-09-13 03:42:00,52.0,51.0,-100.00,SSE,164,0.0,1.0,97,0.00,,,-99.99,,2013-09-13 10:42:00,
2013-09-13 04:12:00,52.0,51.0,-100.00,North,-999,0.0,0.0,97,0.00,,,-99.99,,2013-09-13 11:12:00,
2013-09-13 04:22:00,52.0,51.0,-100.00,North,-999,0.0,0.0,97,0.00,,,-99.99,,2013-09-13 11:22:00,
2013-09-13 05:11:00,51.0,50.0,-100.00,South,176,0.0,1.0,97,0.00,,,-99.99,,2013-09-13 12:11:00,
2013-09-13 05:21:00,51.0,50.0,-100.00,South,176,0.0,1.0,97,0.00,,,-99.99,,2013-09-13 12:21:00,
2013-09-13 05:42:00,52.0,51.0,-100.00,SSE,165,1.0,2.0,97,0.00,,,-99.99,,2013-09-13 12:42:00,
2013-09-13 05:52:00,52.0,51.0,-100.00,North,-999,0.0,0.0,97,0.00,,,-99.99,,2013-09-13 12:52:00,
2013-09-13 06:02:00,52.0,51.0,-100.00,North,-999,0.0,0.0,97,0.00,,,-99.99,,2013-09-13 13:02:00,
2013-09-13 06:11:00,52.0,51.0,-100.00,North,-999,0.0,0.0,97,0.00,,,-99.99,,2013-09-13 13:11:00,
2013-09-13 06:22:00,52.0,51.0,-100.00,North,-999,-999.0,-999.0,97,0.00,,,-99.99,,2013-09-13 13:22:00,
2013-09-13 06:42:00,52.0,51.0,-100.00,SSE,161,0.0,1.0,97,0.00,,,-99.99,,2013-09-13 13:42:00,
2013-09-13 06:52:00,52.0,51.0,-100.00,SE,133,0.0,2.0,98,0.00,,,-99.99,,2013-09-13 13:52:00,
2013-09-13 07:02:00,52.0,51.0,-100.00,SE,133,0.0,2.0,98,0.00,,,-99.99,,2013-09-13 14:02:00,
2013-09-13 07:11:00,52.0,51.0,-100.00,SE,133,0.0,2.0,98,0.00,,,-99.99,,2013-09-13 14:11:00,
2013-09-13 07:42:00,52.0,51.0,-100.00,SSE,168,1.0,2.0,97,0.00,,,-99.99,,2013-09-13 14:42:00,
2013-09-13 07:52:00,52.0,51.0,-100.00,SSE,168,1.0,2.0,97,0.00,,,-99.99,,2013-09-13 14:52:00,
2013-09-13 08:02:00,52.0,51.0,-100.00,SSE,168,1.0,2.0,97,0.00,,,-99.99,,2013-09-13 15:02:00,
2013-09-13 08:22:00,53.0,52.0,-100.00,South,191,0.0,3.0,98,0.00,,,-99.99,,2013-09-13 15:22:00,
2013-09-13 08:43:00,54.0,53.0,-100.00,ESE,117,0.0,6.0,97,0.00,,,-99.99,,2013-09-13 15:43:00,
2013-09-13 09:12:00,55.0,54.0,-100.00,NNW,333,0.0,4.0,97,0.00,,,-99.99,,2013-09-13 16:12:00,
2013-09-13 09:24:00,55.0,54.0,-100.00,North,4,0.0,6.0,96,0.00,,,-99.99,,2013-09-13 16:24:00,
2013-09-13 09:43:00,56.0,55.0,-100.00,WNW,289,1.0,7.0,96,0.00,,,-99.99,,2013-09-13 16:43:00,
2013-09-13 10:13:00,57.0,55.0,-100.00,NW,305,1.0,6.0,92,0.00,,,-99.99,,2013-09-13 17:13:00,
2013-09-13 10:23:00,59.0,56.0,-100.00,NW,323,0.0,4.0,89,0.00,,,-99.99,,2013-09-13 17:23:00,
2013-09-13 10:33:00,59.0,56.0,-100.00,NW,323,0.0,4.0,89,0.00,,,-99.99,,2013-09-13 17:33:00,
2013-09-13 10:43:00,59.0,56.0,-100.00,NW,323,0.0,4.0,89,0.00,,,-99.99,,2013-09-13 17:43:00,
2013-09-13 10:52:00,59.0,54.0,-100.00,North,1,1.0,4.0,84,0.00,,,-99.99,,2013-09-13 17:52:00,
2013-09-13 11:02:00,59.0,54.0,-100.00,North,1,1.0,4.0,84,0.00,,,-99.99,,2013-09-13 18:02:00,
2013-09-13 11:22:00,60.0,54.0,-100.00,NNW,330,0.0,3.0,82,0.00,,,-99.99,,2013-09-13 18:22:00,
2013-09-13 11:42:00,61.0,55.0,-100.00,WNW,284,1.0,4.0,80,0.00,,,-99.99,,2013-09-13 18:42:00,
2013-09-13 11:52:00,61.0,54.0,-100.00,West,268,1.0,5.0,78,0.00,,,-99.99,,2013-09-13 18:52:00,
2013-09-13 12:01:00,61.0,54.0,-100.00,West,268,1.0,5.0,78,0.00,,,-99.99,,2013-09-13 19:01:00,
2013-09-13 12:11:00,61.0,54.0,-100.00,West,268,1.0,5.0,78,0.00,,,-99.99,,2013-09-13 19:11:00,
2013-09-13 12:43:00,62.0,54.0,-100.00,NW,320,1.0,4.0,75,0.00,,,-99.99,,2013-09-13 19:43:00,
2013-09-13 13:11:00,64.0,55.0,-100.00,WNW,289,2.0,6.0,72,0.00,,,-99.99,,2013-09-13 20:11:00,
2013-09-13 13:21:00,64.0,55.0,-100.00,WNW,289,2.0,6.0,72,0.00,,,-99.99,,2013-09-13 20:21:00,
2013-09-13 13:43:00,66.0,55.0,-100.00,WNW,296,1.0,5.0,67,0.00,,,-99.99,,2013-09-13 20:43:00,
2013-09-13 13:52:00,66.0,55.0,-100.00,WNW,296,1.0,5.0,67,0.00,,,-99.99,,2013-09-13 20:52:00,
2013-09-13 14:02:00,66.0,55.0,-100.00,WNW,296,1.0,5.0,67,0.00,,,-99.99,,2013-09-13 21:02:00,
2013-09-13 14:11:00,66.0,55.0,-100.00,WNW,296,1.0,5.0,67,0.00,,,-99.99,,2013-09-13 21:11:00,
2013-09-13 14:21:00,72.0,51.0,-100.00,North,-999,-999.0,-999.0,47,0.00,,,-99.99,,2013-09-13 21:21:00,
2013-09-13 14:44:00,72.0,51.0,-100.00,NW,325,1.0,4.0,47,0.00,,,-99.99,,2013-09-13 21:44:00,
2013-09-13 14:54:00,69.0,52.0,-100.00,NNW,330,1.0,4.0,54,0.00,,,-99.99,,2013-09-13 21:54:00,
2013-09-13 15:13:00,71.0,51.0,-100.00,North,360,1.0,4.0,50,0.00,,,-99.99,,2013-09-13 22:13:00,
2013-09-13 15:43:00,70.0,55.0,-100.00,West,274,1.0,5.0,60,0.00,,,-99.99,,2013-09-13 22:43:00,
2013-09-13 15:53:00,68.0,56.0,-100.00,NNW,333,1.0,5.0,66,0.00,,,-99.99,,2013-09-13 22:53:00,
2013-09-13 16:01:00,68.0,56.0,-100.00,WNW,302,1.0,5.0,65,0.00,,,-99.99,,2013-09-13 23:01:00,
2013-09-13 16:12:00,68.0,55.0,-100.00,WNW,291,2.0,6.0,64,0.00,,,-99.99,,2013-09-13 23:12:00,
2013-09-13 16:22:00,68.0,55.0,-100.00,WNW,291,2.0,6.0,64,0.00,,,-99.99,,2013-09-13 23:22:00,
2013-09-13 16:42:00,68.0,56.0,-100.00,WNW,302,1.0,5.0,65,0.00,,,-99.99,,2013-09-13 23:42:00,
2013-09-13 16:52:00,68.0,56.0,-100.00,WNW,302,1.0,5.0,65,0.00,,,-99.99,,2013-09-13 23:52:00,
2013-09-13 17:22:00,68.0,54.0,-100.00,NW,309,0.0,5.0,60,0.00,,,-99.99,,2013-09-14 00:22:00,
2013-09-13 17:42:00,66.0,54.0,-100.00,South,186,0.0,2.0,66,0.00,,,-99.99,,2013-09-14 00:42:00,
2013-09-13 18:11:00,66.0,53.0,-100.00,SSW,208,1.0,8.0,64,0.00,,,-99.99,,2013-09-14 01:11:00,
2013-09-13 18:21:00,66.0,53.0,-100.00,SW,236,0.0,4.0,64,0.00,,,-99.99,,2013-09-14 01:21:00,
2013-09-13 18:42:00,66.0,53.0,-100.00,North,360,0.0,5.0,63,0.00,,,-99.99,,2013-09-14 01:42:00,
2013-09-13 19:12:00,66.0,54.0,-100.00,NNE,18,2.0,6.0,65,0.00,,,-99.99,,2013-09-14 02:12:00,
2013-09-13 19:22:00,66.0,54.0,-100.00,NNE,20,1.0,5.0,65,0.00,,,-99.99,,2013-09-14 02:22:00,
2013-09-13 19:42:00,65.0,52.0,-100.00,NE,49,1.0,5.0,62,0.00,,,-99.99,,2013-09-14 02:42:00,
2013-09-13 20:11:00,64.0,53.0,-100.00,South,171,1.0,3.0,67,0.00,,,-99.99,,2013-09-14 03:11:00,
2013-09-13 20:22:00,64.0,51.0,-100.00,SSE,152,0.0,3.0,63,0.00,,,-99.99,,2013-09-14 03:22:00,
2013-09-13 20:34:00,64.0,51.0,-100.00,SSE,152,0.0,3.0,63,0.00,,,-99.99,,2013-09-14 03:34:00,
2013-09-13 20:44:00,64.0,51.0,-100.00,SSE,152,0.0,3.0,63,0.00,,,-99.99,,2013-09-14 03:44:00,
2013-09-13 20:54:00,62.0,52.0,-100.00,South,175,1.0,2.0,69,0.00,,,-99.99,,2013-09-14 03:54:00,
2013-09-13 21:04:00,62.0,52.0,-100.00,South,175,1.0,2.0,69,0.00,,,-99.99,,2013-09-14 04:04:00,
2013-09-13 21:24:00,62.0,52.0,-100.00,SSE,157,1.0,2.0,71,0.00,,,-99.99,,2013-09-14 04:24:00,
2013-09-13 21:43:00,61.0,52.0,-100.00,SSE,167,1.0,2.0,71,0.00,,,-99.99,,2013-09-14 04:43:00,
2013-09-13 21:54:00,61.0,52.0,-100.00,SSE,164,0.0,2.0,71,0.00,,,-99.99,,2013-09-14 04:54:00,
2013-09-13 22:03:00,61.0,52.0,-100.00,SSE,164,0.0,2.0,71,0.00,,,-99.99,,2013-09-14 05:03:00,
2013-09-13 22:43:00,60.0,51.0,-100.00,SSE,164,1.0,2.0,72,0.00,,,-99.99,,2013-09-14 05:43:00,
2013-09-13 23:12:00,60.0,51.0,-100.00,South,169,1.0,2.0,72,0.00,,,-99.99,,2013-09-14 06:12:00,
2013-09-13 23:21:00,60.0,51.0,-100.00,SSE,161,0.0,2.0,72,0.00,,,-99.99,,2013-09-14 06:21:00,
2013-09-13 23:42:00,60.0,50.0,-100.00,SSE,167,1.0,2.0,69,0.00,,,-99.99,,2013-09-14 06:42:00,